Orbital Elements at Epoch 2459000.5 (2020-May-31.0) TDB
Reference: JPL 10 (heliocentric ecliptic J2000)
Element | Value | Uncertainty (1-sigma) | Units |
e | .1913512443402876 | 2.7762e-07 | |
a | 2.522311385176462 | 1.3623e-08 | au |
q | 2.039663963009271 | 6.9973e-07 | au |
i | 6.998695677780163 | 1.8743e-05 | deg |
node | 322.2595094229771 | 3.7534e-05 | deg |
peri | 142.6086633835844 | 0.00013787 | deg |
M | 147.1120812678921 | 0.00011109 | deg |
tp | 2458402.581052380368 (2018-Oct-11.08105238) | 0.00045107 | TDB |
period | 1463.175690860455 4.01 | 1.1854e-05 3.245e-08 | d yr |
n | .2460401729257089 | 1.9933e-09 | deg/d |
Q | 3.004958807343653 | 1.6229e-08 | au |
|
| | Orbit Determination Parameters
Additional Information
|